星链-5836 (STARLINK-5836 )

导读 | 豆包AI

STARLINK-5836是美国太空探索技术公司(SpaceX)星链互联网星座中的一颗卫星,于2023年5月4日发射入轨。星链项目旨在构建全球卫星互联网通信系统,该卫星是星链批量部署计划的组成部分,加入星座后为全球偏远地区等场景提供低时延宽带互联网接入服务,进一步扩充了星链星座的覆盖范围与服务容量。

基本信息
目录编号:
56386
目录名称:
STARLINK-5836
国际标识:
2023-061N
轨道中心:
EARTH
卫星名称:
星链-5836
卫星全名:
星链-5836 (STARLINK-5836 )
卫星状态:
在轨 (已飞行1046 天)
发射日期:
2023-05-04 UTC
国别 :
美国 (US)
星等 :
--
轨道信息
数据来源 国际轨道数据
星历时间: 2026-03-15T14:00:01+0800
13小时前
查看轨道信息
半长轴: 6889.479km
偏心率: 0.000155
轨道倾角: 43.000°
近地点辐角 292.788°
升交点赤经 165.975°
平近点角 153.195°
近地点: 510.274km
远地点: 512.41km
周期: 94.850分钟
每日圈数: 15.181799
详细信息
固有亮度:
5
最大亮度:
2.5
卫星平台:
Starlink v1.5
覆盖范围:
全球
运营商:
太空探索技术公司
运营商所在国:
美国
制造商(研发单位):
太空探索技术公司
制造商所在国:
美国
使用方式:
暂无
卫星简介
星链(Starlink)计划是由太空探索技术公司(SpaceX)提出的一个巨型低轨卫星互联网星座项目,计划在2019年至2024年间在太空搭建由约1.2万颗卫星组成的“星链”网络,其中1584颗将部署在地球上空550千米处的近地轨道,并从2020年开始工作。该卫星仍在工作。
2D轨道图
3D轨道图
轨道高度分析图
轨道倾角分析图
轨道综合分析图
查看轨道综合分析图